This is the latest recevied weather packets stored in our database for station/object KA3BQE-13. If no packets are shown the sender has not sent any weather packets the latest 10 day(s).
| Time | Temp. | Humidity | Pressure | Rain* | Wind** | Luminosity | Snow |
|---|---|---|---|---|---|---|---|
| 1777722033 | 3.89° C | 92% | 1020.4 hPa | 0 mm | - | 30 W/m² | - |
| 1777721731 | 3.33° C | 91% | 1020.5 hPa | 0 mm | - | 25 W/m² | - |
| 1777721429 | 3.33° C | 91% | 1020.5 hPa | 0 mm | - | 21 W/m² | - |
| 1777721126 | 2.78° C | 91% | 1020.5 hPa | 0 mm | - | 20 W/m² | - |
| 1777720824 | 2.78° C | 91% | 1020.3 hPa | 0 mm | - | 16 W/m² | - |
| 1777720521 | 2.78° C | 91% | 1020.3 hPa | 0 mm | - | 13 W/m² | - |
| 1777720218 | 2.78° C | 91% | 1020.4 hPa | 0 mm | - | 10 W/m² | - |
| 1777719915 | 2.78° C | 90% | 1020.4 hPa | 0 mm | - | 7 W/m² | - |
| 1777719613 | 2.78° C | 90% | 1020.2 hPa | 0 mm | - | 5 W/m² | - |
| 1777719310 | 2.78° C | 90% | 1020.3 hPa | 0 mm | - | 3 W/m² | - |
| 1777719008 | 3.33° C | 89% | 1020.4 hPa | 0 mm | - | 2 W/m² | - |
| 1777718704 | 3.33° C | 87% | 1020.4 hPa | 0 mm | - | 1 W/m² | - |
| 1777718402 | 3.33° C | 87% | 1020.3 hPa | 0 mm | - | 0 W/m² | - |
| 1777718099 | 3.89° C | 87% | 1020.4 hPa | 0 mm | - | 0 W/m² | - |
| 1777717796 | 3.89° C | 86% | 1020.1 hPa | 0 mm | - | 0 W/m² | - |
| 1777717494 | 3.89° C | 87% | 1020.2 hPa | 0 mm | - | 0 W/m² | - |
| 1777717190 | 3.89° C | 87% | 1020.5 hPa | 0 mm | - | 0 W/m² | - |
| 1777716888 | 3.89° C | 86% | 1020.4 hPa | 0 mm | - | 0 W/m² | - |
| 1777716587 | 3.89° C | 85% | 1020.4 hPa | 0 mm | - | 0 W/m² | - |
| 1777716285 | 3.89° C | 85% | 1020.3 hPa | 0 mm | - | 0 W/m² | - |
| 1777715983 | 4.44° C | 85% | 1020.3 hPa | 0 mm | - | 0 W/m² | - |
| 1777715680 | 4.44° C | 85% | 1020.4 hPa | 0 mm | - | 0 W/m² | - |
| 1777715378 | 4.44° C | 84% | 1020.4 hPa | 0 mm | - | 0 W/m² | - |
| 1777715075 | 4.44° C | 84% | 1020.3 hPa | 0 mm | - | 0 W/m² | - |
| 1777714773 | 4.44° C | 84% | 1020.3 hPa | 0 mm | - | 0 W/m² | - |
* Rain latest hour (hover to see other rain measurements)
** Current wind speed in m/s (hover to see current wind gust speed)